Location: Palomar Mountain Lodge
(33.3110°N, 116.8495°W)
Time: 00:23:49
(UTC-08:00)

Cosmos 2221 - Pass Details

Date: 12 July 2018
Orbit: 593 x 616 km, 82.5° (Epoch: 18 December)

Event Time Altitude Azimuth Distance (km) Brightness Sun altitude
Rises 20:52:21 0° 341° (NNW) 2,834 6.9 -10.4°
Reaches altitude 10° 20:54:44 10° 332° (NNW) 1,927 6.2 -10.8°
Maximum altitude 20:58:30 31° 269° (W) 1,038 4.3 -11.5°
Drops below altitude 10° 21:02:14 10° 207° (SSW) 1,915 5.0 -12.1°
Sets 21:04:36 0° 197° (SSW) 2,813 5.7 -12.5°
